Location: Corralito
(10.2667°N, 66.9500°W)
Time: 17:54:08
(UTC+00:00)

Spot 1 - Pass Details

Date: 23 March 2023
Orbit: 573 x 773 km, 98.8° (Epoch: 08 June)

Event Time Altitude Azimuth Distance (km) Brightness Sun altitude
Rises 23:24:52 0° 12° (NNE) 3,215 7.6 -12.2°
Reaches altitude 10° 23:27:09 10° 13° (NNE) 2,302 6.9 -12.8°
Maximum altitude 23:32:17 88° 102° (ESE) 776 4.5 -14.0°
Drops below altitude 10° 23:37:24 10° 192° (SSW) 2,302 7.1 -15.3°
Sets 23:39:41 0° 192° (SSW) 3,216 7.8 -15.8°
